Time,TemperatureF,DewpointF,PressureIn,WindDirection,WindDirectionDegrees,WindSpeedMPH,WindSpeedGustMPH,Humidity,HourlyPrecipIn,Conditions,Clouds,dailyrainin,SoftwareType,DateUTC
2013-06-04 00:00:00,68.7,57.7,29.96,West,274,0.0,6.0,68,0.00,,,0.09,meteohub,2013-06-04 04:00:00,
2013-06-04 00:01:00,68.7,57.7,29.96,West,274,0.0,6.0,68,0.00,,,0.09,meteohub,2013-06-04 04:01:00,
2013-06-04 00:02:00,68.7,57.7,29.96,West,274,0.0,6.0,68,0.00,,,0.09,meteohub,2013-06-04 04:02:00,
2013-06-04 00:07:00,68.2,56.8,29.96,West,272,0.0,6.0,67,0.00,,,0.00,meteohub,2013-06-04 04:07:00,
2013-06-04 00:12:00,67.8,57.2,29.96,NW,304,1.0,6.0,69,0.00,,,0.00,meteohub,2013-06-04 04:12:00,
2013-06-04 00:17:00,67.6,57.0,29.96,West,265,0.0,3.0,69,0.00,,,0.00,meteohub,2013-06-04 04:17:00,
2013-06-04 00:22:00,67.5,57.4,29.97,West,265,0.0,3.0,70,0.00,,,0.00,meteohub,2013-06-04 04:22:00,
2013-06-04 00:27:00,67.3,57.2,29.97,West,269,1.0,3.0,70,0.00,,,0.00,meteohub,2013-06-04 04:27:00,
2013-06-04 00:32:00,66.9,56.8,29.97,WNW,287,0.0,1.0,70,0.00,,,0.00,meteohub,2013-06-04 04:32:00,
2013-06-04 00:37:00,66.6,56.8,29.98,WNW,292,0.0,3.0,71,0.00,,,0.00,meteohub,2013-06-04 04:37:00,
2013-06-04 00:42:00,66.4,57.0,29.98,WNW,285,2.0,3.0,72,0.00,,,0.00,meteohub,2013-06-04 04:42:00,
2013-06-04 00:47:00,66.0,56.7,29.97,West,273,0.0,3.0,72,0.00,,,0.00,meteohub,2013-06-04 04:47:00,
2013-06-04 00:52:00,65.8,56.5,29.98,West,274,0.0,3.0,72,0.00,,,0.00,meteohub,2013-06-04 04:52:00,
2013-06-04 00:57:00,65.7,56.8,29.97,WSW,255,0.0,3.0,73,0.00,,,0.00,meteohub,2013-06-04 04:57:00,
2013-06-04 01:02:00,65.5,56.7,29.98,WSW,255,0.0,3.0,73,0.00,,,0.00,meteohub,2013-06-04 05:02:00,
2013-06-04 01:07:00,65.3,56.5,29.98,WNW,283,0.0,2.0,73,0.00,,,0.00,meteohub,2013-06-04 05:07:00,
2013-06-04 01:12:00,64.9,56.5,29.98,SW,225,1.0,2.0,74,0.00,,,0.00,meteohub,2013-06-04 05:12:00,
2013-06-04 01:17:00,64.8,56.3,29.98,SW,235,0.0,3.0,74,0.00,,,0.00,meteohub,2013-06-04 05:17:00,
2013-06-04 01:22:00,64.6,56.1,29.98,West,274,0.0,3.0,74,0.00,,,0.00,meteohub,2013-06-04 05:22:00,
2013-06-04 01:27:00,64.6,56.1,29.98,WNW,283,0.0,3.0,74,0.00,,,0.00,meteohub,2013-06-04 05:27:00,
2013-06-04 01:32:00,64.4,56.3,29.98,WNW,283,0.0,3.0,75,0.00,,,0.00,meteohub,2013-06-04 05:32:00,
2013-06-04 01:37:00,64.2,56.5,29.98,WNW,283,0.0,3.0,76,0.00,,,0.00,meteohub,2013-06-04 05:37:00,
2013-06-04 01:42:00,64.0,55.9,29.98,WNW,283,0.0,1.0,75,0.00,,,0.00,meteohub,2013-06-04 05:42:00,
2013-06-04 01:47:00,63.9,56.1,29.98,WNW,283,0.0,1.0,76,0.00,,,0.00,meteohub,2013-06-04 05:47:00,
2013-06-04 01:52:00,63.5,55.8,29.98,WNW,283,0.0,1.0,76,0.00,,,0.00,meteohub,2013-06-04 05:52:00,
2013-06-04 01:57:00,63.3,55.9,29.98,WNW,283,0.0,1.0,77,0.00,,,0.00,meteohub,2013-06-04 05:57:00,
2013-06-04 02:02:00,63.1,56.1,29.98,WNW,283,0.0,1.0,78,0.00,,,0.00,meteohub,2013-06-04 06:02:00,
2013-06-04 02:08:00,63.0,55.9,29.98,WNW,283,0.0,1.0,78,0.00,,,0.00,meteohub,2013-06-04 06:08:00,
2013-06-04 02:13:00,62.8,55.8,29.99,WNW,283,0.0,1.0,78,0.00,,,0.00,meteohub,2013-06-04 06:13:00,
2013-06-04 02:18:00,62.4,55.8,29.99,WNW,283,0.0,1.0,79,0.00,,,0.00,meteohub,2013-06-04 06:18:00,
2013-06-04 02:23:00,62.2,55.2,29.99,WNW,283,0.0,1.0,78,0.00,,,0.00,meteohub,2013-06-04 06:23:00,
2013-06-04 02:28:00,62.2,55.6,29.99,WNW,283,0.0,1.0,79,0.00,,,0.00,meteohub,2013-06-04 06:28:00,
2013-06-04 02:33:00,62.1,55.4,29.99,WNW,283,0.0,1.0,79,0.00,,,0.00,meteohub,2013-06-04 06:33:00,
2013-06-04 02:38:00,61.9,55.6,29.99,WNW,283,0.0,1.0,80,0.00,,,0.00,meteohub,2013-06-04 06:38:00,
2013-06-04 02:43:00,61.7,55.4,29.99,WNW,283,0.0,1.0,80,0.00,,,0.00,meteohub,2013-06-04 06:43:00,
2013-06-04 02:48:00,61.5,55.2,29.99,WNW,283,0.0,1.0,80,0.00,,,0.00,meteohub,2013-06-04 06:48:00,
2013-06-04 02:53:00,61.5,55.2,29.99,WNW,283,0.0,1.0,80,0.00,,,0.00,meteohub,2013-06-04 06:53:00,
2013-06-04 02:58:00,61.3,55.4,29.99,WNW,283,0.0,1.0,81,0.00,,,0.00,meteohub,2013-06-04 06:58:00,
2013-06-04 03:03:00,61.2,54.9,29.99,West,272,0.0,1.0,80,0.00,,,0.00,meteohub,2013-06-04 07:03:00,
2013-06-04 03:08:00,61.2,55.2,29.99,West,272,0.0,1.0,81,0.00,,,0.00,meteohub,2013-06-04 07:08:00,
2013-06-04 03:13:00,61.0,55.0,29.99,West,272,0.0,1.0,81,0.00,,,0.00,meteohub,2013-06-04 07:13:00,
2013-06-04 03:18:00,60.8,54.9,29.99,West,272,0.0,1.0,81,0.00,,,0.00,meteohub,2013-06-04 07:18:00,
2013-06-04 03:23:00,60.6,54.7,29.99,West,272,0.0,1.0,81,0.00,,,0.00,meteohub,2013-06-04 07:23:00,
2013-06-04 03:28:00,60.6,54.7,29.99,NNW,344,0.0,1.0,81,0.00,,,0.00,meteohub,2013-06-04 07:28:00,
2013-06-04 03:33:00,60.4,54.5,29.99,NNW,344,1.0,2.0,81,0.00,,,0.00,meteohub,2013-06-04 07:33:00,
2013-06-04 03:38:00,60.4,54.5,29.99,NNW,340,0.0,2.0,81,0.00,,,0.00,meteohub,2013-06-04 07:38:00,
2013-06-04 03:43:00,60.4,54.5,29.99,WSW,256,0.0,2.0,81,0.00,,,0.00,meteohub,2013-06-04 07:43:00,
2013-06-04 03:48:00,60.4,54.3,29.99,NW,319,0.0,7.0,80,0.00,,,0.00,meteohub,2013-06-04 07:48:00,
2013-06-04 03:53:00,60.4,54.5,29.99,WSW,247,1.0,7.0,81,0.00,,,0.00,meteohub,2013-06-04 07:53:00,
2013-06-04 03:58:00,60.4,54.3,29.99,WSW,252,0.0,7.0,80,0.00,,,0.00,meteohub,2013-06-04 07:58:00,
2013-06-04 04:03:00,60.3,54.7,30.00,WSW,254,0.0,3.0,82,0.00,,,0.00,meteohub,2013-06-04 08:03:00,
2013-06-04 04:08:00,60.1,54.5,30.00,WNW,290,0.0,2.0,82,0.00,,,0.00,meteohub,2013-06-04 08:08:00,
2013-06-04 04:13:00,60.1,54.5,30.00,WNW,290,0.0,3.0,82,0.00,,,0.00,meteohub,2013-06-04 08:13:00,
2013-06-04 04:18:00,59.9,54.3,30.00,WNW,290,0.0,3.0,82,0.00,,,0.00,meteohub,2013-06-04 08:18:00,
2013-06-04 04:23:00,59.7,54.0,30.00,NW,305,1.0,3.0,81,0.00,,,0.00,meteohub,2013-06-04 08:23:00,
2013-06-04 04:28:00,59.5,54.0,30.00,NW,305,0.0,2.0,82,0.00,,,0.00,meteohub,2013-06-04 08:28:00,
2013-06-04 04:33:00,59.5,54.0,30.01,WSW,252,0.0,2.0,82,0.00,,,0.00,meteohub,2013-06-04 08:33:00,
2013-06-04 04:38:00,59.4,53.8,30.01,WSW,252,0.0,2.0,82,0.00,,,0.00,meteohub,2013-06-04 08:38:00,
2013-06-04 04:43:00,59.2,54.3,30.01,WSW,252,1.0,2.0,84,0.00,,,0.00,meteohub,2013-06-04 08:43:00,
2013-06-04 04:48:00,59.0,54.1,30.01,WSW,252,0.0,2.0,84,0.00,,,0.00,meteohub,2013-06-04 08:48:00,
2013-06-04 04:53:00,58.8,54.3,30.01,NW,306,1.0,2.0,85,0.00,,,0.00,meteohub,2013-06-04 08:53:00,
2013-06-04 04:58:00,58.6,53.4,30.01,NW,306,0.0,2.0,83,0.00,,,0.00,meteohub,2013-06-04 08:58:00,
2013-06-04 05:03:00,58.6,53.2,30.02,NW,306,0.0,2.0,82,0.00,,,0.00,meteohub,2013-06-04 09:03:00,
2013-06-04 05:08:00,58.5,53.2,30.02,NW,304,0.0,2.0,83,0.00,,,0.00,meteohub,2013-06-04 09:08:00,
2013-06-04 05:13:00,58.5,53.6,30.02,NW,304,0.0,1.0,84,0.00,,,0.00,meteohub,2013-06-04 09:13:00,
2013-06-04 05:18:00,58.3,53.1,30.02,NW,304,0.0,1.0,83,0.00,,,0.00,meteohub,2013-06-04 09:18:00,
2013-06-04 05:23:00,58.1,52.9,30.02,NW,304,0.0,1.0,83,0.00,,,0.00,meteohub,2013-06-04 09:23:00,
2013-06-04 05:28:00,57.9,52.7,30.02,NW,304,0.0,1.0,83,0.00,,,0.00,meteohub,2013-06-04 09:28:00,
2013-06-04 05:33:00,57.9,53.1,30.03,NW,304,0.0,1.0,84,0.00,,,0.00,meteohub,2013-06-04 09:33:00,
2013-06-04 05:38:00,57.7,52.9,30.03,NW,304,0.0,0.0,84,0.00,,,0.00,meteohub,2013-06-04 09:38:00,
2013-06-04 05:43:00,57.6,53.1,30.03,NW,304,0.0,0.0,85,0.00,,,0.00,meteohub,2013-06-04 09:43:00,
2013-06-04 05:48:00,57.7,54.1,30.03,NW,304,0.0,0.0,88,0.00,,,0.00,meteohub,2013-06-04 09:48:00,
2013-06-04 05:53:00,57.7,54.5,30.03,NW,304,0.0,0.0,89,0.00,,,0.00,meteohub,2013-06-04 09:53:00,
2013-06-04 05:58:00,57.7,54.5,30.03,NW,304,0.0,0.0,89,0.00,,,0.00,meteohub,2013-06-04 09:58:00,
2013-06-04 06:03:00,57.6,54.0,30.04,NW,304,0.0,1.0,88,0.00,,,0.00,meteohub,2013-06-04 10:03:00,
2013-06-04 06:08:00,57.2,53.4,30.04,WNW,292,0.0,1.0,87,0.00,,,0.00,meteohub,2013-06-04 10:08:00,
2013-06-04 06:13:00,57.0,52.9,30.05,WNW,292,0.0,1.0,86,0.00,,,0.00,meteohub,2013-06-04 10:13:00,
2013-06-04 06:18:00,56.8,52.7,30.05,WNW,292,0.0,1.0,86,0.00,,,0.00,meteohub,2013-06-04 10:18:00,
2013-06-04 06:23:00,56.7,52.5,30.05,WNW,292,0.0,1.0,86,0.00,,,0.00,meteohub,2013-06-04 10:23:00,
2013-06-04 06:28:00,56.7,52.5,30.06,WNW,292,0.0,1.0,86,0.00,,,0.00,meteohub,2013-06-04 10:28:00,
2013-06-04 06:33:00,56.5,52.0,30.06,WNW,292,0.0,1.0,85,0.00,,,0.00,meteohub,2013-06-04 10:33:00,
2013-06-04 06:38:00,56.5,52.0,30.06,WNW,292,0.0,0.0,85,0.00,,,0.00,meteohub,2013-06-04 10:38:00,
2013-06-04 06:43:00,56.3,51.8,30.07,WNW,292,0.0,0.0,85,0.00,,,0.00,meteohub,2013-06-04 10:43:00,
2013-06-04 06:48:00,56.1,51.6,30.07,WNW,292,0.0,0.0,85,0.00,,,0.00,meteohub,2013-06-04 10:48:00,
2013-06-04 06:53:00,56.3,51.8,30.07,WNW,292,0.0,0.0,85,0.00,,,0.00,meteohub,2013-06-04 10:53:00,
2013-06-04 06:58:00,56.3,51.8,30.07,WNW,292,0.0,0.0,85,0.00,,,0.00,meteohub,2013-06-04 10:58:00,
2013-06-04 07:03:00,56.5,51.6,30.08,WNW,292,0.0,0.0,84,0.00,,,0.00,meteohub,2013-06-04 11:03:00,
2013-06-04 07:09:00,56.7,51.8,30.08,WNW,292,0.0,1.0,84,0.00,,,0.00,meteohub,2013-06-04 11:09:00,
2013-06-04 07:14:00,56.8,52.0,30.08,WNW,293,0.0,1.0,84,0.00,,,0.00,meteohub,2013-06-04 11:14:00,
2013-06-04 07:19:00,57.0,52.2,30.08,NNW,340,0.0,1.0,84,0.00,,,0.00,meteohub,2013-06-04 11:19:00,
2013-06-04 07:24:00,57.4,52.0,30.09,WNW,285,0.0,4.0,82,0.00,,,0.00,meteohub,2013-06-04 11:24:00,
2013-06-04 07:29:00,57.6,52.2,30.09,WNW,288,1.0,4.0,82,0.00,,,0.00,meteohub,2013-06-04 11:29:00,
2013-06-04 07:34:00,57.6,49.6,30.09,NE,42,0.0,4.0,75,0.00,,,0.00,meteohub,2013-06-04 11:34:00,
2013-06-04 07:39:00,57.7,48.7,30.09,WNW,283,0.0,4.0,72,0.00,,,0.00,meteohub,2013-06-04 11:39:00,
2013-06-04 07:44:00,57.7,48.4,30.09,WNW,283,0.0,4.0,71,0.00,,,0.00,meteohub,2013-06-04 11:44:00,
2013-06-04 07:49:00,57.9,48.2,30.09,WNW,283,1.0,3.0,70,0.00,,,0.00,meteohub,2013-06-04 11:49:00,
2013-06-04 07:54:00,58.1,47.7,30.10,WNW,283,0.0,2.0,68,0.00,,,0.00,meteohub,2013-06-04 11:54:00,
2013-06-04 07:59:00,58.3,48.2,30.10,ENE,66,0.0,2.0,69,0.00,,,0.00,meteohub,2013-06-04 11:59:00,
2013-06-04 08:04:00,58.6,48.2,30.10,NW,314,0.0,2.0,68,0.00,,,0.00,meteohub,2013-06-04 12:04:00,
2013-06-04 08:09:00,58.8,47.5,30.10,NW,314,0.0,3.0,66,0.00,,,0.00,meteohub,2013-06-04 12:09:00,
2013-06-04 08:14:00,59.4,47.1,30.10,ENE,57,0.0,3.0,64,0.00,,,0.00,meteohub,2013-06-04 12:14:00,
2013-06-04 08:19:00,59.5,46.9,30.11,NNE,25,1.0,3.0,63,0.00,,,0.00,meteohub,2013-06-04 12:19:00,
2013-06-04 08:24:00,59.7,46.8,30.11,NE,37,1.0,3.0,62,0.00,,,0.00,meteohub,2013-06-04 12:24:00,
2013-06-04 08:29:00,60.3,45.9,30.11,NNW,333,2.0,4.0,59,0.00,,,0.00,meteohub,2013-06-04 12:29:00,
2013-06-04 08:34:00,60.6,45.3,30.11,NNE,26,0.0,4.0,57,0.00,,,0.00,meteohub,2013-06-04 12:34:00,
2013-06-04 08:39:00,61.3,47.8,30.11,East,85,1.0,4.0,61,0.00,,,0.00,meteohub,2013-06-04 12:39:00,
2013-06-04 08:44:00,62.2,47.7,30.11,ENE,63,1.0,4.0,59,0.00,,,0.00,meteohub,2013-06-04 12:44:00,
2013-06-04 08:49:00,63.0,45.5,30.11,NNW,334,0.0,3.0,53,0.00,,,0.00,meteohub,2013-06-04 12:49:00,
2013-06-04 08:54:00,63.1,46.2,30.12,WNW,299,1.0,3.0,54,0.00,,,0.00,meteohub,2013-06-04 12:54:00,
2013-06-04 08:59:00,63.9,49.6,30.11,ENE,57,2.0,3.0,60,0.00,,,0.00,meteohub,2013-06-04 12:59:00,
2013-06-04 09:04:00,64.4,45.9,30.12,NNW,336,1.0,3.0,51,0.00,,,0.00,meteohub,2013-06-04 13:04:00,
2013-06-04 09:09:00,64.4,45.9,30.12,WNW,300,2.0,5.0,51,0.00,,,0.00,meteohub,2013-06-04 13:09:00,
2013-06-04 09:14:00,64.4,46.9,30.12,ENE,75,2.0,5.0,53,0.00,,,0.00,meteohub,2013-06-04 13:14:00,
2013-06-04 09:19:00,64.9,46.9,30.12,NW,314,3.0,5.0,52,0.00,,,0.00,meteohub,2013-06-04 13:19:00,
2013-06-04 09:24:00,65.1,46.6,30.12,NNW,348,1.0,4.0,51,0.00,,,0.00,meteohub,2013-06-04 13:24:00,
2013-06-04 09:29:00,65.5,47.8,30.12,ENE,76,0.0,3.0,53,0.00,,,0.00,meteohub,2013-06-04 13:29:00,
2013-06-04 09:34:00,66.0,48.9,30.12,North,355,0.0,4.0,54,0.00,,,0.00,meteohub,2013-06-04 13:34:00,
2013-06-04 09:39:00,66.2,47.5,30.12,NNW,341,3.0,4.0,51,0.00,,,0.00,meteohub,2013-06-04 13:39:00,
2013-06-04 09:44:00,66.0,47.8,30.12,East,80,1.0,4.0,52,0.00,,,0.00,meteohub,2013-06-04 13:44:00,
2013-06-04 09:49:00,66.4,45.5,30.13,NW,315,2.0,8.0,47,0.00,,,0.00,meteohub,2013-06-04 13:49:00,
2013-06-04 09:54:00,66.4,47.7,30.13,SW,223,0.0,8.0,51,0.00,,,0.00,meteohub,2013-06-04 13:54:00,
2013-06-04 09:59:00,66.9,47.1,30.13,NE,53,1.0,8.0,49,0.00,,,0.00,meteohub,2013-06-04 13:59:00,
2013-06-04 10:04:00,67.8,48.0,30.13,NE,36,1.0,4.0,49,0.00,,,0.00,meteohub,2013-06-04 14:04:00,
2013-06-04 10:09:00,68.5,47.5,30.13,ENE,78,1.0,4.0,47,0.00,,,0.00,meteohub,2013-06-04 14:09:00,
2013-06-04 10:14:00,69.4,49.5,30.13,East,82,0.0,4.0,49,0.00,,,0.00,meteohub,2013-06-04 14:14:00,
2013-06-04 10:19:00,69.6,48.6,30.13,NNE,30,0.0,4.0,47,0.00,,,0.00,meteohub,2013-06-04 14:19:00,
2013-06-04 10:25:00,69.4,47.8,30.13,ENE,57,1.0,4.0,46,0.00,,,0.00,meteohub,2013-06-04 14:25:00,
2013-06-04 10:30:00,69.4,47.8,30.13,North,11,1.0,4.0,46,0.00,,,0.00,meteohub,2013-06-04 14:30:00,
2013-06-04 10:35:00,69.8,47.5,30.13,NE,42,1.0,4.0,45,0.00,,,0.00,meteohub,2013-06-04 14:35:00,
2013-06-04 10:40:00,70.0,49.5,30.13,NW,306,2.0,4.0,48,0.00,,,0.00,meteohub,2013-06-04 14:40:00,
2013-06-04 10:45:00,69.3,46.4,30.13,NNW,327,0.0,3.0,44,0.00,,,0.00,meteohub,2013-06-04 14:45:00,
2013-06-04 10:50:00,69.3,48.7,30.13,NE,44,1.0,5.0,48,0.00,,,0.00,meteohub,2013-06-04 14:50:00,
2013-06-04 10:55:00,69.8,47.5,30.13,WSW,252,2.0,5.0,45,0.00,,,0.00,meteohub,2013-06-04 14:55:00,
2013-06-04 11:00:00,69.4,47.1,30.14,West,279,1.0,5.0,45,0.00,,,0.00,meteohub,2013-06-04 15:00:00,
2013-06-04 11:05:00,69.3,46.4,30.14,NW,325,0.0,5.0,44,0.00,,,0.00,meteohub,2013-06-04 15:05:00,
2013-06-04 11:10:00,69.1,46.2,30.13,West,269,3.0,3.0,44,0.00,,,0.00,meteohub,2013-06-04 15:10:00,
2013-06-04 11:15:00,68.7,45.9,30.13,NW,323,3.0,5.0,44,0.00,,,0.00,meteohub,2013-06-04 15:15:00,
2013-06-04 11:20:00,69.1,48.6,30.13,NNW,329,2.0,5.0,48,0.00,,,0.00,meteohub,2013-06-04 15:20:00,
2013-06-04 11:25:00,69.4,50.5,30.13,East,82,2.0,5.0,51,0.00,,,0.00,meteohub,2013-06-04 15:25:00,
2013-06-04 11:30:00,70.0,48.2,30.13,West,262,2.0,5.0,46,0.00,,,0.00,meteohub,2013-06-04 15:30:00,
2013-06-04 11:35:00,70.2,47.3,30.13,North,9,0.0,4.0,44,0.00,,,0.00,meteohub,2013-06-04 15:35:00,
2013-06-04 11:40:00,70.3,48.6,30.13,NW,322,1.0,4.0,46,0.00,,,0.00,meteohub,2013-06-04 15:40:00,
2013-06-04 11:45:00,70.5,48.7,30.13,NNW,336,0.0,4.0,46,0.00,,,0.00,meteohub,2013-06-04 15:45:00,
2013-06-04 11:50:00,70.3,51.4,30.13,WNW,296,1.0,6.0,51,0.00,,,0.00,meteohub,2013-06-04 15:50:00,
2013-06-04 11:55:00,70.9,49.1,30.13,West,263,3.0,6.0,46,0.00,,,0.00,meteohub,2013-06-04 15:55:00,
2013-06-04 12:00:00,71.2,50.5,30.13,ESE,103,1.0,6.0,48,0.00,,,0.00,meteohub,2013-06-04 16:00:00,
2013-06-04 12:05:00,71.4,49.6,30.13,NE,51,1.0,6.0,46,0.00,,,0.00,meteohub,2013-06-04 16:05:00,
2013-06-04 12:10:00,72.0,47.7,30.13,West,262,0.0,5.0,42,0.00,,,0.00,meteohub,2013-06-04 16:10:00,
2013-06-04 12:15:00,71.8,47.5,30.13,NNW,336,5.0,6.0,42,0.00,,,0.00,meteohub,2013-06-04 16:15:00,
2013-06-04 12:20:00,71.2,45.0,30.13,WSW,257,0.0,7.0,39,0.00,,,0.00,meteohub,2013-06-04 16:20:00,
2013-06-04 12:25:00,71.8,48.0,30.12,NNW,344,4.0,7.0,43,0.00,,,0.00,meteohub,2013-06-04 16:25:00,
2013-06-04 12:30:00,71.4,45.1,30.12,NW,310,3.0,7.0,39,0.00,,,0.00,meteohub,2013-06-04 16:30:00,
2013-06-04 12:35:00,71.8,46.8,30.12,NNW,338,1.0,6.0,41,0.00,,,0.00,meteohub,2013-06-04 16:35:00,
2013-06-04 12:40:00,72.1,50.2,30.12,SE,144,2.0,5.0,46,0.00,,,0.00,meteohub,2013-06-04 16:40:00,
2013-06-04 12:45:00,72.9,45.7,30.12,NW,324,2.0,5.0,38,0.00,,,0.00,meteohub,2013-06-04 16:45:00,
2013-06-04 12:50:00,72.9,46.4,30.12,South,183,1.0,5.0,39,0.00,,,0.00,meteohub,2013-06-04 16:50:00,
2013-06-04 12:55:00,72.9,49.1,30.12,SW,226,2.0,5.0,43,0.00,,,0.00,meteohub,2013-06-04 16:55:00,
2013-06-04 13:00:00,72.9,50.9,30.12,WSW,250,0.0,6.0,46,0.00,,,0.00,meteohub,2013-06-04 17:00:00,
2013-06-04 13:05:00,72.9,51.4,30.11,NW,309,2.0,6.0,47,0.00,,,0.00,meteohub,2013-06-04 17:05:00,
2013-06-04 13:10:00,72.7,47.7,30.11,NW,316,1.0,6.0,41,0.00,,,0.00,meteohub,2013-06-04 17:10:00,
2013-06-04 13:15:00,72.3,48.6,30.11,SW,227,0.0,4.0,43,0.00,,,0.00,meteohub,2013-06-04 17:15:00,
2013-06-04 13:20:00,72.1,47.8,30.11,WNW,300,0.0,4.0,42,0.00,,,0.00,meteohub,2013-06-04 17:20:00,
2013-06-04 13:25:00,72.0,45.0,30.11,WNW,301,2.0,4.0,38,0.00,,,0.00,meteohub,2013-06-04 17:25:00,
2013-06-04 13:30:00,72.0,48.9,30.10,NNW,338,3.0,6.0,44,0.00,,,0.00,meteohub,2013-06-04 17:30:00,
2013-06-04 13:35:00,71.6,47.8,30.10,SW,236,4.0,6.0,43,0.00,,,0.00,meteohub,2013-06-04 17:35:00,
2013-06-04 13:40:00,71.4,45.9,30.10,NNE,16,3.0,6.0,40,0.00,,,0.00,meteohub,2013-06-04 17:40:00,
2013-06-04 13:45:00,71.2,48.7,30.10,WNW,289,1.0,6.0,45,0.00,,,0.00,meteohub,2013-06-04 17:45:00,
2013-06-04 13:50:00,71.6,47.3,30.09,WSW,257,0.0,6.0,42,0.00,,,0.00,meteohub,2013-06-04 17:50:00,
2013-06-04 13:55:00,72.0,47.7,30.09,West,276,0.0,5.0,42,0.00,,,0.00,meteohub,2013-06-04 17:55:00,
2013-06-04 14:00:00,72.0,45.7,30.09,West,270,0.0,4.0,39,0.00,,,0.00,meteohub,2013-06-04 18:00:00,
2013-06-04 14:05:00,72.1,48.4,30.09,WNW,286,0.0,4.0,43,0.00,,,0.00,meteohub,2013-06-04 18:05:00,
2013-06-04 14:10:00,72.3,48.0,30.09,NNW,334,1.0,6.0,42,0.00,,,0.00,meteohub,2013-06-04 18:10:00,
2013-06-04 14:15:00,71.8,47.5,30.09,NNW,340,0.0,6.0,42,0.00,,,0.00,meteohub,2013-06-04 18:15:00,
2013-06-04 14:20:00,71.8,48.7,30.09,North,0,0.0,6.0,44,0.00,,,0.00,meteohub,2013-06-04 18:20:00,
2013-06-04 14:25:00,72.1,46.4,30.09,West,263,1.0,5.0,40,0.00,,,0.00,meteohub,2013-06-04 18:25:00,
2013-06-04 14:30:00,72.7,49.5,30.09,SW,215,3.0,5.0,44,0.00,,,0.00,meteohub,2013-06-04 18:30:00,
2013-06-04 14:35:00,73.0,50.4,30.09,NE,38,1.0,5.0,45,0.00,,,0.00,meteohub,2013-06-04 18:35:00,
2013-06-04 14:40:00,73.4,49.5,30.09,NW,310,1.0,4.0,43,0.00,,,0.00,meteohub,2013-06-04 18:40:00,
2013-06-04 14:45:00,73.8,48.6,30.09,West,275,4.0,4.0,41,0.00,,,0.00,meteohub,2013-06-04 18:45:00,
2013-06-04 14:50:00,73.6,49.6,30.09,WNW,284,1.0,4.0,43,0.00,,,0.00,meteohub,2013-06-04 18:50:00,
2013-06-04 14:55:00,73.4,50.2,30.09,NNW,338,1.0,7.0,44,0.00,,,0.00,meteohub,2013-06-04 18:55:00,
2013-06-04 15:01:00,73.0,49.3,30.09,NNW,339,2.0,7.0,43,0.00,,,0.00,meteohub,2013-06-04 19:01:00,
2013-06-04 15:06:00,72.9,50.9,30.10,WSW,240,0.0,8.0,46,0.00,,,0.00,meteohub,2013-06-04 19:06:00,
2013-06-04 15:11:00,72.9,49.6,30.09,SSW,192,1.0,8.0,44,0.00,,,0.00,meteohub,2013-06-04 19:11:00,
2013-06-04 15:16:00,73.0,49.3,30.09,SSW,213,0.0,5.0,43,0.00,,,0.00,meteohub,2013-06-04 19:16:00,
2013-06-04 15:21:00,72.9,47.8,30.09,NNW,348,4.0,5.0,41,0.00,,,0.00,meteohub,2013-06-04 19:21:00,
2013-06-04 15:26:00,72.9,50.4,30.09,West,270,1.0,6.0,45,0.00,,,0.00,meteohub,2013-06-04 19:26:00,
2013-06-04 15:31:00,73.0,52.2,30.09,NNW,330,3.0,6.0,48,0.00,,,0.00,meteohub,2013-06-04 19:31:00,
2013-06-04 15:36:00,73.4,51.4,30.09,SSE,160,0.0,5.0,46,0.00,,,0.00,meteohub,2013-06-04 19:36:00,
2013-06-04 15:41:00,73.8,50.5,30.09,SSW,209,3.0,5.0,44,0.00,,,0.00,meteohub,2013-06-04 19:41:00,
2013-06-04 15:46:00,73.8,51.1,30.09,SE,146,1.0,5.0,45,0.00,,,0.00,meteohub,2013-06-04 19:46:00,
2013-06-04 15:51:00,73.9,50.0,30.09,North,351,1.0,4.0,43,0.00,,,0.00,meteohub,2013-06-04 19:51:00,
2013-06-04 15:57:00,73.8,49.8,30.09,ESE,115,1.0,4.0,43,0.00,,,0.00,meteohub,2013-06-04 19:57:00,
2013-06-04 16:02:00,73.6,49.1,30.09,North,0,4.0,5.0,42,0.00,,,0.00,meteohub,2013-06-04 20:02:00,
2013-06-04 16:07:00,73.6,49.6,30.09,NNW,339,0.0,7.0,43,0.00,,,0.00,meteohub,2013-06-04 20:07:00,
2013-06-04 16:12:00,73.9,50.7,30.09,ESE,115,2.0,7.0,44,0.00,,,0.00,meteohub,2013-06-04 20:12:00,
2013-06-04 16:17:00,74.1,52.5,30.09,WNW,302,3.0,7.0,47,0.00,,,0.00,meteohub,2013-06-04 20:17:00,
2013-06-04 16:22:00,74.5,52.3,30.09,North,355,0.0,4.0,46,0.00,,,0.00,meteohub,2013-06-04 20:22:00,
2013-06-04 16:27:00,74.5,51.8,30.09,NW,317,0.0,7.0,45,0.00,,,0.00,meteohub,2013-06-04 20:27:00,
2013-06-04 16:32:00,74.1,48.2,30.09,NNW,338,0.0,7.0,40,0.00,,,0.00,meteohub,2013-06-04 20:32:00,
2013-06-04 16:37:00,74.1,52.0,30.09,NW,324,3.0,7.0,46,0.00,,,0.00,meteohub,2013-06-04 20:37:00,
2013-06-04 16:42:00,74.1,51.4,30.09,SW,231,0.0,6.0,45,0.00,,,0.00,meteohub,2013-06-04 20:42:00,
2013-06-04 16:47:00,74.3,51.6,30.09,ESE,108,0.0,5.0,45,0.00,,,0.00,meteohub,2013-06-04 20:47:00,
2013-06-04 16:52:00,74.7,50.0,30.09,WNW,287,2.0,5.0,42,0.00,,,0.00,meteohub,2013-06-04 20:52:00,
2013-06-04 16:57:00,74.7,50.0,30.09,SE,140,0.0,5.0,42,0.00,,,0.00,meteohub,2013-06-04 20:57:00,
2013-06-04 17:02:00,74.7,50.0,30.09,NW,306,0.0,5.0,42,0.00,,,0.00,meteohub,2013-06-04 21:02:00,
2013-06-04 17:07:00,74.8,53.2,30.09,West,259,0.0,7.0,47,0.00,,,0.00,meteohub,2013-06-04 21:07:00,
2013-06-04 17:12:00,75.2,49.8,30.09,NNW,338,0.0,7.0,41,0.00,,,0.00,meteohub,2013-06-04 21:12:00,
2013-06-04 17:17:00,75.2,49.3,30.09,NNW,336,1.0,4.0,40,0.00,,,0.00,meteohub,2013-06-04 21:17:00,
2013-06-04 17:22:00,74.8,48.2,30.08,West,267,0.0,4.0,39,0.00,,,0.00,meteohub,2013-06-04 21:22:00,
2013-06-04 17:27:00,74.7,51.3,30.08,NW,304,0.0,4.0,44,0.00,,,0.00,meteohub,2013-06-04 21:27:00,
2013-06-04 17:32:00,74.8,52.7,30.08,WSW,238,0.0,4.0,46,0.00,,,0.00,meteohub,2013-06-04 21:32:00,
2013-06-04 17:37:00,74.8,52.2,30.08,West,270,4.0,4.0,45,0.00,,,0.00,meteohub,2013-06-04 21:37:00,
2013-06-04 17:42:00,74.8,51.4,30.08,WNW,302,2.0,5.0,44,0.00,,,0.00,meteohub,2013-06-04 21:42:00,
2013-06-04 17:47:00,74.7,48.0,30.08,NW,315,5.0,5.0,39,0.00,,,0.00,meteohub,2013-06-04 21:47:00,
2013-06-04 17:52:00,74.3,51.6,30.08,SW,228,1.0,8.0,45,0.00,,,0.00,meteohub,2013-06-04 21:52:00,
2013-06-04 17:57:00,74.5,52.9,30.08,NW,314,2.0,8.0,47,0.00,,,0.00,meteohub,2013-06-04 21:57:00,
2013-06-04 18:02:00,74.5,48.6,30.08,NW,316,1.0,8.0,40,0.00,,,0.00,meteohub,2013-06-04 22:02:00,
2013-06-04 18:07:00,74.3,48.4,30.09,West,280,1.0,4.0,40,0.00,,,0.00,meteohub,2013-06-04 22:07:00,
2013-06-04 18:12:00,74.1,49.6,30.09,WSW,257,0.0,6.0,42,0.00,,,0.00,meteohub,2013-06-04 22:12:00,
2013-06-04 18:17:00,74.1,50.2,30.09,NNW,334,1.0,7.0,43,0.00,,,0.00,meteohub,2013-06-04 22:17:00,
2013-06-04 18:22:00,73.9,51.3,30.09,North,350,0.0,7.0,45,0.00,,,0.00,meteohub,2013-06-04 22:22:00,
2013-06-04 18:27:00,73.8,50.5,30.08,WNW,295,3.0,7.0,44,0.00,,,0.00,meteohub,2013-06-04 22:27:00,
2013-06-04 18:32:00,73.0,49.8,30.09,NW,314,2.0,7.0,44,0.00,,,0.00,meteohub,2013-06-04 22:32:00,
2013-06-04 18:37:00,72.7,50.2,30.08,NW,309,0.0,7.0,45,0.00,,,0.00,meteohub,2013-06-04 22:37:00,
2013-06-04 18:42:00,72.3,49.1,30.08,NNW,329,3.0,5.0,44,0.00,,,0.00,meteohub,2013-06-04 22:42:00,
2013-06-04 18:47:00,72.1,49.1,30.08,NW,311,0.0,4.0,44,0.00,,,0.00,meteohub,2013-06-04 22:47:00,
2013-06-04 18:52:00,72.0,50.0,30.08,NW,311,0.0,4.0,46,0.00,,,0.00,meteohub,2013-06-04 22:52:00,
2013-06-04 18:57:00,72.0,51.3,30.08,NW,311,0.0,4.0,48,0.00,,,0.00,meteohub,2013-06-04 22:57:00,
2013-06-04 19:02:00,71.8,50.5,30.08,NNW,338,0.0,3.0,47,0.00,,,0.00,meteohub,2013-06-04 23:02:00,
2013-06-04 19:07:00,71.6,49.6,30.09,NNW,338,0.0,2.0,46,0.00,,,0.00,meteohub,2013-06-04 23:07:00,
2013-06-04 19:12:00,71.4,50.7,30.09,NW,318,2.0,2.0,48,0.00,,,0.00,meteohub,2013-06-04 23:12:00,
2013-06-04 19:17:00,71.2,50.5,30.09,NNW,344,0.0,2.0,48,0.00,,,0.00,meteohub,2013-06-04 23:17:00,
2013-06-04 19:22:00,71.1,49.8,30.09,NNW,329,0.0,5.0,47,0.00,,,0.00,meteohub,2013-06-04 23:22:00,
2013-06-04 19:28:00,70.9,50.7,30.09,NNW,329,0.0,5.0,49,0.00,,,0.00,meteohub,2013-06-04 23:28:00,
2013-06-04 19:33:00,70.5,50.9,30.09,WSW,257,0.0,5.0,50,0.00,,,0.00,meteohub,2013-06-04 23:33:00,
2013-06-04 19:38:00,70.3,51.4,30.09,WSW,257,0.0,3.0,51,0.00,,,0.00,meteohub,2013-06-04 23:38:00,
2013-06-04 19:43:00,70.2,51.3,30.10,WSW,257,0.0,3.0,51,0.00,,,0.00,meteohub,2013-06-04 23:43:00,
2013-06-04 19:48:00,70.0,51.1,30.10,WSW,257,0.0,3.0,51,0.00,,,0.00,meteohub,2013-06-04 23:48:00,
2013-06-04 19:53:00,69.8,51.4,30.10,WSW,257,0.0,1.0,52,0.00,,,0.00,meteohub,2013-06-04 23:53:00,
2013-06-04 19:58:00,69.6,50.7,30.10,WSW,257,0.0,1.0,51,0.00,,,0.00,meteohub,2013-06-04 23:58:00,
2013-06-04 20:03:00,69.4,51.6,30.10,WSW,257,0.0,0.0,53,0.00,,,0.00,meteohub,2013-06-05 00:03:00,
2013-06-04 20:09:00,69.3,50.9,30.10,WSW,257,0.0,0.0,52,0.00,,,0.00,meteohub,2013-06-05 00:09:00,
2013-06-04 20:14:00,69.1,51.3,30.10,WSW,257,0.0,0.0,53,0.00,,,0.00,meteohub,2013-06-05 00:14:00,
2013-06-04 20:19:00,68.7,50.4,30.10,WSW,257,0.0,0.0,52,0.00,,,0.00,meteohub,2013-06-05 00:19:00,
2013-06-04 20:24:00,68.4,50.5,30.10,WSW,257,0.0,0.0,53,0.00,,,0.00,meteohub,2013-06-05 00:24:00,
2013-06-04 20:29:00,68.2,50.9,30.11,WSW,257,0.0,0.0,54,0.00,,,0.00,meteohub,2013-06-05 00:29:00,
2013-06-04 20:34:00,67.8,51.1,30.11,WSW,257,0.0,0.0,55,0.00,,,0.00,meteohub,2013-06-05 00:34:00,
2013-06-04 20:39:00,67.6,51.4,30.11,WSW,257,0.0,0.0,56,0.00,,,0.00,meteohub,2013-06-05 00:39:00,
2013-06-04 20:44:00,67.3,51.1,30.11,WSW,257,0.0,0.0,56,0.00,,,0.00,meteohub,2013-06-05 00:44:00,
2013-06-04 20:49:00,66.9,50.2,30.11,WSW,257,0.0,0.0,55,0.00,,,0.00,meteohub,2013-06-05 00:49:00,
2013-06-04 20:54:00,66.6,49.8,30.11,WSW,257,0.0,0.0,55,0.00,,,0.00,meteohub,2013-06-05 00:54:00,
2013-06-04 20:59:00,66.2,50.0,30.11,WSW,257,0.0,0.0,56,0.00,,,0.00,meteohub,2013-06-05 00:59:00,
2013-06-04 21:04:00,65.8,49.6,30.11,WSW,257,0.0,0.0,56,0.00,,,0.00,meteohub,2013-06-05 01:04:00,
2013-06-04 21:09:00,65.7,50.5,30.11,WSW,257,0.0,0.0,58,0.00,,,0.00,meteohub,2013-06-05 01:09:00,
2013-06-04 21:14:00,65.5,50.4,30.11,WSW,257,0.0,0.0,58,0.00,,,0.00,meteohub,2013-06-05 01:14:00,
2013-06-04 21:19:00,65.3,50.5,30.12,WSW,257,0.0,0.0,59,0.00,,,0.00,meteohub,2013-06-05 01:19:00,
2013-06-04 21:24:00,64.9,50.2,30.12,WSW,257,0.0,0.0,59,0.00,,,0.00,meteohub,2013-06-05 01:24:00,
2013-06-04 21:29:00,64.8,50.5,30.12,WSW,257,0.0,0.0,60,0.00,,,0.00,meteohub,2013-06-05 01:29:00,
2013-06-04 21:34:00,64.6,50.4,30.12,WSW,257,0.0,0.0,60,0.00,,,0.00,meteohub,2013-06-05 01:34:00,
2013-06-04 21:39:00,64.2,50.0,30.12,WSW,257,0.0,0.0,60,0.00,,,0.00,meteohub,2013-06-05 01:39:00,
2013-06-04 21:44:00,64.0,50.7,30.12,WSW,257,0.0,0.0,62,0.00,,,0.00,meteohub,2013-06-05 01:44:00,
2013-06-04 21:49:00,63.7,51.3,30.12,WSW,257,0.0,0.0,64,0.00,,,0.00,meteohub,2013-06-05 01:49:00,
2013-06-04 21:54:00,63.5,52.0,30.12,WSW,257,0.0,0.0,66,0.00,,,0.00,meteohub,2013-06-05 01:54:00,
2013-06-04 21:59:00,63.1,51.3,30.12,WSW,257,0.0,0.0,65,0.00,,,0.00,meteohub,2013-06-05 01:59:00,
2013-06-04 22:04:00,63.0,51.1,30.13,WSW,257,0.0,0.0,65,0.00,,,0.00,meteohub,2013-06-05 02:04:00,
2013-06-04 22:09:00,62.8,50.9,30.13,WSW,257,0.0,0.0,65,0.00,,,0.00,meteohub,2013-06-05 02:09:00,
2013-06-04 22:14:00,62.6,51.1,30.13,WSW,257,0.0,0.0,66,0.00,,,0.00,meteohub,2013-06-05 02:14:00,
2013-06-04 22:19:00,62.4,50.5,30.13,WSW,257,0.0,0.0,65,0.00,,,0.00,meteohub,2013-06-05 02:19:00,
2013-06-04 22:24:00,62.2,51.6,30.14,WSW,257,0.0,0.0,68,0.00,,,0.00,meteohub,2013-06-05 02:24:00,
2013-06-04 22:29:00,62.1,51.8,30.14,WSW,257,0.0,0.0,69,0.00,,,0.00,meteohub,2013-06-05 02:29:00,
2013-06-04 22:34:00,61.9,51.3,30.14,WSW,257,0.0,0.0,68,0.00,,,0.00,meteohub,2013-06-05 02:34:00,
2013-06-04 22:39:00,61.5,50.9,30.14,WSW,257,0.0,0.0,68,0.00,,,0.00,meteohub,2013-06-05 02:39:00,
2013-06-04 22:44:00,61.5,51.3,30.14,WSW,257,0.0,0.0,69,0.00,,,0.00,meteohub,2013-06-05 02:44:00,
2013-06-04 22:49:00,61.3,51.1,30.14,WSW,257,0.0,0.0,69,0.00,,,0.00,meteohub,2013-06-05 02:49:00,
2013-06-04 22:54:00,61.2,50.5,30.14,WSW,257,0.0,0.0,68,0.00,,,0.00,meteohub,2013-06-05 02:54:00,
2013-06-04 22:59:00,61.0,50.7,30.14,WSW,257,0.0,0.0,69,0.00,,,0.00,meteohub,2013-06-05 02:59:00,
2013-06-04 23:04:00,60.6,51.1,30.14,WSW,257,0.0,0.0,71,0.00,,,0.00,meteohub,2013-06-05 03:04:00,
2013-06-04 23:09:00,60.6,52.0,30.13,WSW,257,0.0,0.0,73,0.00,,,0.00,meteohub,2013-06-05 03:09:00,
2013-06-04 23:14:00,60.6,52.3,30.13,WSW,257,0.0,0.0,74,0.00,,,0.00,meteohub,2013-06-05 03:14:00,
2013-06-04 23:19:00,60.4,52.2,30.13,WSW,257,0.0,0.0,74,0.00,,,0.00,meteohub,2013-06-05 03:19:00,
2013-06-04 23:24:00,60.4,51.8,30.14,WSW,257,0.0,0.0,73,0.00,,,0.00,meteohub,2013-06-05 03:24:00,
2013-06-04 23:29:00,60.3,52.0,30.14,WSW,257,0.0,0.0,74,0.00,,,0.00,meteohub,2013-06-05 03:29:00,
2013-06-04 23:35:00,60.1,52.2,30.13,WSW,257,0.0,0.0,75,0.00,,,0.00,meteohub,2013-06-05 03:35:00,
2013-06-04 23:39:00,60.1,51.8,30.13,WSW,257,0.0,0.0,74,0.00,,,0.00,meteohub,2013-06-05 03:39:00,
2013-06-04 23:44:00,59.9,51.6,30.14,WSW,257,0.0,0.0,74,0.00,,,0.00,meteohub,2013-06-05 03:44:00,
2013-06-04 23:49:00,59.7,51.4,30.14,WSW,257,0.0,0.0,74,0.00,,,0.00,meteohub,2013-06-05 03:49:00,
2013-06-04 23:55:00,59.5,51.3,30.14,WSW,257,0.0,0.0,74,0.00,,,0.00,meteohub,2013-06-05 03:55:00,